吉利星座1组03星 (GEESAT-1 03)

导读 | 豆包AI

GEESAT 1-03(吉天星一号03星)是中国吉利科技集团旗下时空道宇首批量产低轨商业卫星之一,于2022年6月2日在西昌卫星发射中心成功发射入轨。作为中国首批模块化批量生产的商业低轨卫星,它隶属于GEESAT-1星座,承载着商业航天技术验证、低轨星座组网探索的使命,推动我国商业航天走向规模化、低成本发展新阶段。

基本信息
目录编号:
52787
目录名称:
GEESAT 1-03
国际标识:
2022-058C
轨道中心:
EARTH
卫星名称:
吉利星座1组03星
卫星全名:
吉利星座1组03星 (GEESAT-1 03)
卫星状态:
在轨 (已飞行1402 天)
发射日期:
2022-06-02 UTC
国别 :
中国 (CN)
星等 :
--
轨道信息
数据来源 国际轨道数据 AOE轨道数据
星历时间 2026-04-03T22:54:13+0800
9小时前
查看轨道信息
2026-03-30T08:00:00+0800
5天前
查看轨道信息
半长轴 7003.85km 7003.896km
偏心率 0.0008588 0.0008179
轨道倾角 49.986° 49.987°
近地点辐角 181.890° 162.661°
升交点赤经 185.732° 207.067°
平近点角 178.200° 20.464°
近地点 619.698km 620.03km
远地点 631.728km 631.488km
周期 97.222分钟 97.223分钟
每日圈数 14.811449 14.811303
详细信息
平衡模式:
三轴稳定
覆盖范围:
全球
运营商:
时空道宇科技有限公司
运营商所在国:
中国
制造商(研发单位):
时空道宇科技有限公司
制造商所在国:
中国
使用方式:
暂无
卫星简介
吉利星座(GeeSAT)也称“吉利未来出行星座”,由吉利旗下时空道宇自主研发,布局硬核科技生态,赋能智慧出行、无人系统、智慧城市等领域,并将全面提升吉利控股旗下极氪、领克、远程新能源商用车等品牌的用户智能出行体验。通过“吉利未来出行星座”建设,吉利控股集团将构建天地一体化高精时空信息系统。该卫星仍在工作。
2D轨道图
3D轨道图
轨道高度分析图
轨道倾角分析图
轨道综合分析图
查看轨道综合分析图